DW7792 Weather Reports


time (UTC)temp
C
wind
direction
speed
KPH
gust
KPH
rain 1hr
cm
rain 24hr
cm
rain mn
cm
humidity
%
barometer
mb
20260505031527 8 251 11.3 22.5 0.00 0.61 0.00 79 1006.4
20260505030024 8 267 12.9 27.4 0.00 0.66 0.61 78 1006.1
20260505024522 8 258 14.5 20.9 0.00 0.66 0.61 78 1005.9
20260505023021 8 249 9.7 17.7 0.00 0.66 0.61 77 1005.9
20260505021520 8 254 12.9 20.9 0.00 0.66 0.61 76 1005.6
20260505020031 9 241 12.9 25.7 0.00 0.69 0.61 75 1005.4
20260505014518 9 235 12.9 22.5 0.00 0.69 0.61 74 1005.2
20260505013018 10 235 9.7 20.9 0.00 0.69 0.61 72 1005.4
20260505011517 10 251 14.5 27.4 0.00 0.69 0.61 70 1005.1
20260505010016 10 260 12.9 29.0 0.00 0.76 0.61 70 1005.0
20260505004518 10 244 12.9 29.0 0.00 0.76 0.61 69 1005.1
20260505003013 11 261 14.5 30.6 0.00 0.76 0.61 68 1004.8
20260505001512 11 241 11.3 27.4 0.00 0.76 0.61 67 1004.6
20260505000012 11 261 22.5 33.8 0.00 0.94 0.61 64 1004.5
20260504234511 11 262 24.1 37.0 0.00 0.94 0.61 59 1004.2
20260504233008 11 262 20.9 33.8 0.00 0.94 0.61 52 1004.2
20260504231506 11 262 12.9 19.3 0.00 0.94 0.61 51 1003.9
20260504230005 12 287 17.7 29.0 0.00 1.55 0.61 48 1003.7
20260504224502 12 258 9.7 19.3 0.00 1.55 0.61 48 1003.2
20260504223102 12 289 12.9 27.4 0.00 1.55 0.61 46 1003.1
20260504221559 12 279 16.1 38.6 0.00 1.55 0.61 46 1002.8
20260504220157 12 274 22.5 41.8 0.00 1.55 0.61 45 1002.6
20260504214558 12 267 22.5 49.9 0.00 2.11 0.61 46 1002.5
20260504213109 13 261 25.7 62.8 0.00 2.11 0.61 45 1002.4
20260504211552 13 257 29.0 41.8 0.00 2.11 0.61 45 1002.4
20260504210051 13 270 30.6 53.1 0.00 2.39 0.61 45 1002.1
20260504204552 13 260 27.4 54.7 0.00 2.39 0.61 46 1001.7
20260504203043 13 275 29.0 45.1 0.00 2.39 0.61 47 1001.7
20260504201540 12 269 25.7 48.3 0.00 2.39 0.61 50 1001.5
20260504200036 12 281 27.4 53.1 0.00 2.54 0.61 50 1001.3
20260504194534 12 281 35.4 51.5 0.00 2.54 0.61 51 1001.2
20260504193041 12 279 29.0 49.9 0.00 2.54 0.61 55 1001.0
20260504191533 12 281 27.4 54.7 0.00 2.54 0.61 58 1000.7
20260504190033 12 248 29.0 51.5 0.00 2.59 0.61 60 1000.7
20260504184527 12 244 32.2 51.5 0.00 2.59 0.61 61 1000.3
20260504183026 12 268 20.9 41.8 0.00 2.59 0.61 61 1000.3
20260504181522 11 274 24.1 40.2 0.00 2.59 0.61 65 1000.2
20260504180020 11 288 22.5 49.9 0.00 2.59 0.61 67 1000.1
20260504174520 11 256 29.0 46.7 0.00 2.59 0.61 68 999.9
20260504173016 11 276 27.4 43.5 0.00 2.59 0.61 71 999.8
20260504171511 10 269 22.5 48.3 0.00 2.59 0.61 71 999.7
20260504081528 2 304 45.1 77.2 0.03 2.31 0.33 94 982.9
20260504060107 3 262 24.1 45.1 0.05 2.21 0.23 97 978.3
20260504044544 3 256 19.3 35.4 0.08 2.13 0.15 97 976.3
20260504043052 3 257 17.7 29.0 0.10 2.11 0.15 97 975.7
20260504041538 3 271 17.7 32.2 0.08 2.08 0.10 97 974.9
20260504040035 3 264 11.3 24.1 0.08 2.06 0.08 97 974.3
20260504034536 3 305 14.5 19.3 0.10 2.06 0.08 97 973.8
20260504033030 3 344 4.8 9.7 0.08 2.03 0.05 97 973.5